Showing default

UMBRA-07, 58297

Orbit data source: Space-Track

UMBRA-07, 58297 is a payload satellite owned by Umbra Labs (US) in SSO that was launched on Sat, 11 Nov 2023 UTC via an FALCON 9 launch vehicle from the Air Force Western Test Range (AFWTR). Payload-class satellites include a variety of spacecraft equipped with specific instruments for various scientific and technological missions. These include communications satellites like Starlink; space stations such as the ISS; scientific satellites like the Hubble; Earth observation satellites from companies like Planet Labs, Umbra, and HawkEye 360; GPS; miniature CubeSats for education and research; and military/defense satellites.

Loading next visibility...
Identifier
58297, 2023-174AT
Orbit
SSO
Country
Flag of USUS
Related business
Manufacturer
Umbra Labs
Mission
Operational Commercial Radar Imaging
Bus & Motor
ESPASAT?, Unknown motor
Mass
84 kg wet, 79 kg dry
Launch date (UTC)
2023-11-11 (3 years ago)
Launch vehicle
FALCON 9
Launch site
Air Force Western Test Range (AFWTR)
Object type
Payload
Rocket body
Debris
Shape & HBR
Box + 2 Pan + 1 Dish, 2.0 m
Radar Cross Section
6.513 m², Large (>1 m²)

Expand to show TLE details & history
Last TLE update: 14 hours ago

TLE from 14 hours ago
0 UMBRA-07
1 58297U 23174AT  26132.88913927  .00006067  00000-0  39321-3 0  9999
2 58297  97.3820 190.0031 0003738 168.2638 191.8678 15.08457887138095
Epoch: 2026-05-12T21:20Z
TLE epoch observation values (Epoch: 2026-05-12T21:20:21.632Z)
Latitude
-0.00012°
Longitude
-0.74406°
Altitude
546.519 km
Speed
7.587 km/s
True Right ascension
12h 40m 00s
True Declination
0° 00' 00"
Sunlit
Object was in full shadow at epoch
Visualization orbit readout
Latitude
Unknown
Longitude
Unknown
Altitude
Unknown
Speed
Unknown
Apparent Right ascension
Unknown
Apparent Declination
Unknown
Sunlit
N/A
Visualization observer readout
Local Sidereal Time
19:56:46
Azimuth
Unknown
Elevation
Unknown
Doppler factor
Unknown
Orbital elements
Apogee altitude
540.477 km
Perigee altitude
535.307 km
Semi-major axis
6,916.029 km
Eccentricity
0.00037
Inclination
97.382°
RAAN
190.0031°
Arg. of periapsis
168.2638°
True anomaly
191.85899°
Mean anomaly
191.8678°
Eccentric anomaly
191.8634°
Mean motion
3.77362 °/min
Orbital period
95.4 mins
BSTAR
0.00039321
Loading maneuver chart data...
Computing Atmospheric mass density...
Loading historical data...
Loading historical data...
Loading historical data...
Loading historical data...
Loading historical data...
Loading historical data...
Loading historical data...

Documentation

Showing up to 5 results
|